Chon Buri, Thailand

04:20 PM +07 on November 22, 2017 (GMT +0700)
Bangkok (Suvarnabhumi) | | Change Station

Elev 7 ft 13.37 °N, 100.98 °E | Updated 20 minutes ago

Scattered Clouds
Växlande molnighet
90 °F
Feels Like 95 °F
N
12
Vind Växlande Vind from Ostlig

Idag
High -- | Low -- °F
--% Chance of Precip.
Yesterday
High -- | Low -- °F
Precip. -- tum
Lufttryck 29.74 tum
Sikt 6.2 miles
Molnigt Few 2000 ft
Växlande molnighet 4000 ft
Värmeindex 95 °F
Daggpunkt 70 °F
Luftfuktighet 52%
Rainfall 0.00 tum
Snow Depth Not available.
6:18 AM 5:45 PM
Första kvarteret, 13% visible
METAR VTBS 220900Z 08010KT 040V100 9999 FEW020 SCT040 32/21 Q1007 NOSIG
Lufttryck 29.74 tum
Sikt 6.2 miles
Molnigt Few 2000 ft
Växlande molnighet 4000 ft
Värmeindex 95 °F
Daggpunkt 70 °F
Luftfuktighet 52%
Rainfall 0.00 tum
Snow Depth Not available.
6:18 AM 5:45 PM
Första kvarteret, 13% visible
METAR VTBS 220900Z 08010KT 040V100 9999 FEW020 SCT040 32/21 Q1007 NOSIG

Get Severe Weather Alerts

Thanks for signing up!

Be on the lookout for a verification email in your inbox.

You'll start receiving the daily forecast at 6 AM.

×

10-Day Weather Forecast

No radar image for this location.
×

Almanac

Astronomi

Nov. 22, 2017 Rise Set
Actual Time
Civil Twilight
Nautical Twilight
Astronomical Twilight
Månen
Length Of Visible Light
Dagens längd
Tomorrow will be .
, % of the Moon is Illuminated

Today's Extremes

Country Highs Country Lows

Community

WunderPhotos

Category 6

Welcome to Category 6. This is the collective home for Weather Underground's featured writeups by Dr. Jeff Masters (right), Bob Henson (left), Chris Burt, and other regular contributors.

Nearby

Air Quality

  Air Quality AQ Index Pollutant
Not available.

Snödjup

Station Depth Elevation

Earthquake Activity

Stad Distance Mag. Time & Date
Minimum magnitude displayed is 2.5.

Coastal Water Temperatures

Plats Temperatur

Stations

Nearby Weather Stations

Station Location Temp Vindavkylning Daggpunkt Luftfuktighet Vind Precip. Elev Uppdaterad Type